When you browse on this site, cookies collect data to enhance your experience and personalize the content and advertising you see.
Visit our Privacy Policy to learn more. By continuing to use the site, you agree to this use of cookies and data.
  • Em Portugal
  • Lista de países
  • Para 7 dias
  • Temperatura da água
  • Mapas de satélite
  • Mapa do tempo
  • Widgets de tempo
  • user-avatar
    Iniciar Sessão

    Previsão horária em Uida

    Hoje, 10 Dezembro, Segunda-feira

    Tempo Temperatura Precipitação Vento Pressão Humidade
    00:00 +29°C° 0 mm 2 m/s 759 mmHg 75%
    01:00 +28°C° 0 mm 1 m/s 759 mmHg 77%
    02:00 +28°C° 0 mm 1 m/s 758 mmHg 79%
    03:00 +27°C° 0 mm 1 m/s 758 mmHg 81%
    04:00 +27°C° 0 mm 1 m/s 758 mmHg 83%
    05:00 +27°C° 0 mm 1 m/s 758 mmHg 85%
    06:00 +27°C° 0 mm 1 m/s 758 mmHg 86%
    07:00 +29°C° 0 mm 1 m/s 759 mmHg 75%
    08:00 +32°C° 0 mm 1 m/s 759 mmHg 63%
    09:00 +34°C° 0 mm 1 m/s 759 mmHg 52%
    10:00 +36°C° 0 mm 1 m/s 759 mmHg 44%
    11:00 +37°C° 0 mm 1 m/s 759 mmHg 35%
    12:00 +40°C° 0 mm 1 m/s 758 mmHg 27%
    13:00 +39°C° 0 mm 2 m/s 757 mmHg 30%
    14:00 +39°C° 0 mm 3 m/s 757 mmHg 32%
    15:00 +38°C° 0 mm 4 m/s 756 mmHg 35%
    16:00 +36°C° 0 mm 4 m/s 756 mmHg 44%
    17:00 +34°C° 0 mm 4 m/s 756 mmHg 54%
    18:00 +32°C° 0 mm 4 m/s 757 mmHg 63%
    19:00 +30°C° 0 mm 4 m/s 757 mmHg 66%
    20:00 +30°C° 0 mm 4 m/s 758 mmHg 69%
    21:00 +30°C° 0 mm 4 m/s 758 mmHg 72%
    22:00 +29°C° 0 mm 4 m/s 758 mmHg 73%
    23:00 +29°C° 0 mm 3 m/s 758 mmHg 75%

    Amanhã, 11 Dezembro, Terça-feira

    Tempo Temperatura Precipitação Vento Pressão Humidade
    00:00 +29°C° 0 mm 3 m/s 758 mmHg 77%
    01:00 +29°C° 0 mm 3 m/s 758 mmHg 79%
    02:00 +28°C° 0 mm 3 m/s 757 mmHg 80%
    03:00 +28°C° 0 mm 3 m/s 757 mmHg 82%
    04:00 +28°C° 0 mm 2 m/s 757 mmHg 83%
    05:00 +27°C° 0 mm 2 m/s 757 mmHg 85%
    06:00 +27°C° 0 mm 2 m/s 758 mmHg 86%
    07:00 +29°C° 0 mm 2 m/s 758 mmHg 77%
    08:00 +31°C° 0 mm 2 m/s 759 mmHg 67%
    09:00 +34°C° 0 mm 2 m/s 759 mmHg 58%
    10:00 +36°C° 0.1 mm 2 m/s 759 mmHg 52%
    11:00 +37°C° 0.1 mm 2 m/s 758 mmHg 47%
    12:00 +38°C° 0.1 mm 2 m/s 758 mmHg 41%
    13:00 +37°C° 0 mm 3 m/s 757 mmHg 43%
    14:00 +37°C° 0 mm 4 m/s 756 mmHg 45%
    15:00 +36°C° 0 mm 4 m/s 756 mmHg 48%
    16:00 +35°C° 0 mm 4 m/s 756 mmHg 54%
    17:00 +33°C° 0 mm 4 m/s 756 mmHg 61%
    18:00 +32°C° 0 mm 4 m/s 757 mmHg 67%
    19:00 +32°C° 0 mm 4 m/s 757 mmHg 70%
    20:00 +30°C° 0 mm 5 m/s 758 mmHg 72%
    21:00 +30°C° 0 mm 5 m/s 759 mmHg 75%
    22:00 +30°C° 0.1 mm 4 m/s 758 mmHg 77%
    23:00 +29°C° 0.1 mm 4 m/s 758 mmHg 79%

    Depois de amanhã, 12 Dezembro, Quarta-feira

    Tempo Temperatura Precipitação Vento Pressão Humidade
    00:00 +29°C° 0.1 mm 4 m/s 758 mmHg 80%
    01:00 +29°C° 0.6 mm 4 m/s 757 mmHg 81%
    02:00 +28°C° 0.6 mm 4 m/s 757 mmHg 83%
    03:00 +28°C° 0.6 mm 3 m/s 757 mmHg 84%
    04:00 +28°C° 0.2 mm 3 m/s 757 mmHg 84%
    05:00 +27°C° 0.2 mm 3 m/s 757 mmHg 85%
    06:00 +27°C° 0.2 mm 2 m/s 758 mmHg 86%
    07:00 +29°C° 0 mm 3 m/s 758 mmHg 77%
    08:00 +31°C° 0 mm 3 m/s 759 mmHg 68%
    09:00 +34°C° 0 mm 3 m/s 759 mmHg 60%
    10:00 +34°C° 0.2 mm 3 m/s 759 mmHg 56%
    11:00 +35°C° 0.2 mm 3 m/s 758 mmHg 53%
    12:00 +36°C° 0.2 mm 3 m/s 758 mmHg 49%
    13:00 +36°C° 0.8 mm 3 m/s 757 mmHg 51%
    14:00 +35°C° 0.8 mm 3 m/s 756 mmHg 54%
    15:00 +34°C° 0.8 mm 4 m/s 756 mmHg 56%
    16:00 +33°C° 0.3 mm 4 m/s 756 mmHg 61%
    17:00 +32°C° 0.3 mm 4 m/s 756 mmHg 65%
    18:00 +30°C° 0.3 mm 4 m/s 757 mmHg 70%
    19:00 +30°C° 0 mm 4 m/s 757 mmHg 72%
    20:00 +29°C° 0 mm 4 m/s 758 mmHg 74%
    21:00 +29°C° 0 mm 4 m/s 759 mmHg 76%
    22:00 +29°C° 0 mm 4 m/s 758 mmHg 77%
    23:00 +29°C° 0 mm 4 m/s 758 mmHg 79%

    13 Dezembro, Quinta-feira

    Tempo Temperatura Precipitação Vento Pressão Humidade
    00:00 +29°C° 0 mm 4 m/s 758 mmHg 80%
    01:00 +29°C° 0 mm 3 m/s 758 mmHg 81%
    02:00 +28°C° 0 mm 3 m/s 757 mmHg 82%
    03:00 +28°C° 0 mm 3 m/s 757 mmHg 84%
    04:00 +28°C° 1.9 mm 3 m/s 757 mmHg 85%
    05:00 +28°C° 1.9 mm 2 m/s 758 mmHg 86%
    06:00 +27°C° 1.9 mm 2 m/s 758 mmHg 88%
    07:00 +29°C° 0 mm 2 m/s 758 mmHg 80%
    08:00 +30°C° 0 mm 2 m/s 759 mmHg 72%
    09:00 +32°C° 0 mm 2 m/s 759 mmHg 64%
    10:00 +35°C° 0.1 mm 2 m/s 759 mmHg 56%
    11:00 +37°C° 0.1 mm 2 m/s 758 mmHg 49%
    12:00 +39°C° 0.1 mm 1 m/s 758 mmHg 42%
    13:00 +38°C° 0 mm 2 m/s 757 mmHg 44%
    14:00 +37°C° 0 mm 3 m/s 756 mmHg 46%
    15:00 +36°C° 0 mm 3 m/s 756 mmHg 48%
    16:00 +35°C° 0.1 mm 4 m/s 756 mmHg 55%
    17:00 +33°C° 0.1 mm 4 m/s 757 mmHg 63%
    18:00 +32°C° 0.1 mm 4 m/s 757 mmHg 70%
    19:00 +30°C° 0 mm 4 m/s 757 mmHg 72%
    20:00 +30°C° 0 mm 4 m/s 758 mmHg 74%
    21:00 +30°C° 0 mm 4 m/s 758 mmHg 76%
    22:00 +29°C° 0 mm 4 m/s 758 mmHg 77%
    23:00 +29°C° 0 mm 4 m/s 758 mmHg 79%

    14 Dezembro, Sexta-feira

    Tempo Temperatura Precipitação Vento Pressão Humidade
    00:00 +29°C° 0 mm 3 m/s 758 mmHg 81%
    01:00 +29°C° 0.7 mm 3 m/s 757 mmHg 83%
    02:00 +28°C° 0.7 mm 3 m/s 757 mmHg 85%
    03:00 +28°C° 0.7 mm 3 m/s 757 mmHg 87%
    04:00 +28°C° 0.1 mm 3 m/s 757 mmHg 88%
    05:00 +27°C° 0.1 mm 2 m/s 757 mmHg 89%
    06:00 +27°C° 0.1 mm 2 m/s 758 mmHg 90%
    07:00 +29°C° 0.4 mm 2 m/s 758 mmHg 81%
    08:00 +31°C° 0.4 mm 2 m/s 759 mmHg 72%
    09:00 +33°C° 0.4 mm 1 m/s 759 mmHg 64%
    10:00 +35°C° 0 mm 1 m/s 759 mmHg 55%
    11:00 +37°C° 0 mm 1 m/s 758 mmHg 46%
    12:00 +40°C° 0 mm 1 m/s 758 mmHg 37%
    13:00 +39°C° 0 mm 2 m/s 757 mmHg 38%
    14:00 +39°C° 0 mm 3 m/s 756 mmHg 39%
    15:00 +38°C° 0 mm 4 m/s 756 mmHg 40%
    16:00 +36°C° 0 mm 4 m/s 756 mmHg 51%
    17:00 +34°C° 0 mm 5 m/s 756 mmHg 61%
    18:00 +32°C° 0 mm 5 m/s 757 mmHg 72%
    19:00 +30°C° 0 mm 5 m/s 757 mmHg 74%
    20:00 +30°C° 0 mm 4 m/s 758 mmHg 76%
    21:00 +30°C° 0 mm 4 m/s 758 mmHg 78%
    22:00 +29°C° 0 mm 4 m/s 758 mmHg 79%
    23:00 +29°C° 0 mm 4 m/s 758 mmHg 80%

    15 Dezembro, Sábado

    Tempo Temperatura Precipitação Vento Pressão Humidade
    00:00 +29°C° 0 mm 3 m/s 758 mmHg 81%
    01:00 +29°C° 0 mm 3 m/s 757 mmHg 82%
    02:00 +28°C° 0 mm 3 m/s 757 mmHg 84%
    03:00 +28°C° 0 mm 3 m/s 757 mmHg 85%
    04:00 +28°C° 0 mm 3 m/s 757 mmHg 85%
    05:00 +28°C° 0 mm 2 m/s 758 mmHg 86%
    06:00 +28°C° 0 mm 2 m/s 758 mmHg 87%
    07:00 +29°C° 0 mm 2 m/s 758 mmHg 79%
    08:00 +31°C° 0 mm 2 m/s 759 mmHg 71%
    09:00 +34°C° 0 mm 2 m/s 759 mmHg 62%
    10:00 +35°C° 0 mm 2 m/s 759 mmHg 57%
    11:00 +36°C° 0 mm 2 m/s 758 mmHg 52%
    12:00 +37°C° 0 mm 2 m/s 758 mmHg 46%
    13:00 +37°C° 0 mm 3 m/s 757 mmHg 45%
    14:00 +37°C° 0 mm 3 m/s 756 mmHg 44%
    15:00 +38°C° 0 mm 3 m/s 756 mmHg 43%
    16:00 +36°C° 0 mm 4 m/s 756 mmHg 52%
    17:00 +34°C° 0 mm 4 m/s 756 mmHg 61%
    18:00 +32°C° 0 mm 4 m/s 757 mmHg 70%
    19:00 +32°C° 0 mm 4 m/s 757 mmHg 72%
    20:00 +30°C° 0 mm 4 m/s 758 mmHg 74%
    21:00 +30°C° 0 mm 4 m/s 758 mmHg 75%
    22:00 +30°C° 0 mm 4 m/s 758 mmHg 77%
    23:00 +30°C° 0 mm 4 m/s 758 mmHg 79%
    Mostrar mais